Satellite-Ground Cal/Val Site Overpasses Predictions

Prediction of Satellite NPP Overpassing Cal/Val Site: Antarctic Dome C

Ground Cal/Val Site Location: Latitude: -75.10, Longitude: 123.35; Satellite-Ground Site NADIR distance within 100 km.

Table of predicted overpasses for the next 14.0 days since TLE Epoch: 11/11/2017
Interval Starting Time Ending Time Minimum Distance Time Minimum Distance (km)
1 11/13/2017 14:55:26 11/13/2017 14:55:55 11/13/2017 14:55:41 21.84
2 11/14/2017 14:36:43 11/14/2017 14:36:58 11/14/2017 14:36:51 85.31
3 11/15/2017 07:38:16 11/15/2017 07:38:43 11/15/2017 07:38:30 39.44
4 11/16/2017 07:19:30 11/16/2017 07:19:51 11/16/2017 07:19:40 70.49
5 11/18/2017 15:01:45 11/18/2017 15:02:08 11/18/2017 15:01:57 59.03
6 11/19/2017 14:42:54 11/19/2017 14:43:19 11/19/2017 14:43:06 50.28
7 11/20/2017 07:44:36 11/20/2017 07:44:55 11/20/2017 07:44:45 74.68
8 11/21/2017 07:25:41 11/21/2017 07:26:09 11/21/2017 07:25:55 33.07
9 11/23/2017 15:08:08 11/23/2017 15:08:15 11/23/2017 15:08:11 96.87


NCC Satellite Cal/Val Overpasses Prediction Service
